Location: Donald C. Martin Observatory
(38.3885°N, 82.3916°W)
Time: 04:08:20
(UTC-04:00)

Daily predictions for brighter satellites

Satellite Brightness Start Highest point End
(mag) Time Altitude Azimuth Time Altitude Azimuth Time Altitude Azimuth
Cosmos 2333 Rocket 2.2 00:00:32 10° NNW 00:06:19 74° ENE 00:07:11 62° SE
ALOS 2 4.4 00:06:36 21° ENE 00:06:36 21° ENE 00:09:50 10° NNE
Nadezhda 1 Rocket 4.1 00:04:55 10° NNW 00:10:56 65° W 00:12:27 48° SSW
SL-16 R/B 3.3 00:07:17 10° N 00:12:21 32° ENE 00:13:41 29° E
NOSS 3-1 (A) 4.2 00:07:39 10° SW 00:13:20 49° NW 00:19:39 10° NNE
Lacrosse 4 Rocket 3.5 00:10:40 10° N 00:13:59 20° NE 00:14:35 20° ENE
Cosmos 1869 3.8 00:10:02 10° N 00:13:24 59° NNW 00:13:24 59° NNW
COSMOS 2428 3.8 00:12:40 10° NW 00:17:37 32° WSW 00:18:35 30° WSW
Cosmos 1455 3.4 00:19:07 10° NNW 00:21:56 38° WNW 00:21:56 38° WNW
Cosmos 2297 Rocket 2.0 00:25:45 77° S 00:26:09 85° ESE 00:31:51 10° NNE
Cosmos 1709 Rocket 3.9 00:27:28 63° SSW 00:28:31 83° W 00:34:40 10° N
H-2A R/B 3.9 00:27:59 10° NNE 00:30:32 31° NE 00:30:32 31° NE
Cosmos 2221 Rocket 4.0 00:29:27 10° N 00:33:22 61° NNE 00:33:22 61° NNE
Cosmos 192 4.4 00:29:35 10° NNW 00:34:11 76° NW 00:34:11 76° NW
ATLAS 2AS CENTAUR R/B 2.9 00:32:38 42° SW 00:35:36 88° WNW 00:43:41 10° NNE
GEOS 3 Rocket 3.7 00:35:41 64° E 00:36:09 67° NE 00:41:19 10° NNW
COS B Rocket 4.4 00:32:45 10° N 00:35:12 41° N 00:35:12 41° N
Cosmos 1703 Rocket 4.0 00:33:27 10° N 00:37:00 58° N 00:37:00 58° N
Cosmos 2219 Rocket 2.8 00:32:57 10° NW 00:38:14 43° WSW 00:38:24 43° WSW
COSMOS 2455 3.2 00:35:11 10° NNW 00:41:07 56° ENE 00:42:06 50° E
H-2A R/B 4.0 00:41:19 18° WSW 00:42:25 19° W 00:46:08 10° NW
Cosmos 2292 Rocket 4.4 00:41:35 65° SSW 00:42:36 82° W 00:50:13 10° N
CZ-2C R/B 4.3 00:39:04 10° NE 00:42:07 20° E 00:42:07 20° E
Okean 1-7 3.9 00:39:02 10° N 00:42:15 45° NNE 00:42:15 45° NNE
Cosmos 2181 Rocket 4.0 00:43:36 10° N 00:49:58 73° W 00:50:50 64° SW
Cosmos 1980 4.2 00:46:31 10° NW 00:51:50 47° WSW 00:51:50 47° WSW
Cosmos 1269 Rocket 4.0 00:51:12 10° NNW 00:56:14 78° WNW 00:56:14 78° WNW
Cosmos 389 Rocket 4.5 00:53:44 10° N 00:55:35 28° N 00:55:35 28° N
Meteor 2-3 Rocket 3.8 00:57:41 67° E 00:57:41 67° E 01:03:19 10° NNE
Cosmos 2184 Rocket 3.9 00:59:55 71° SE 01:00:19 73° E 01:06:30 10° N
ATLAS 3B R/B 2.7 00:53:58 10° NNW 01:00:58 74° ENE 01:02:13 59° ESE
Helios 1A Rocket 4.4 00:59:28 10° NNE 01:01:59 32° NE 01:01:59 32° NE
Cosmos 2237 Rocket 3.0 01:00:02 10° NW 01:05:04 40° W 01:05:04 40° W
SL-08 ROCKET BODY 4.3 01:08:49 73° SE 01:09:10 75° E 01:15:20 10° N
FALCON 9 R/B 3.0 00:57:32 10° W 01:09:35 53° SW 01:09:35 53° SW
NOSS 2-3 (E) 4.1 01:11:18 66° NE 01:11:18 66° NE 01:16:07 10° NE
CZ-4B R/B 3.7 01:17:43 26° NNW 01:17:43 26° NNW 01:19:20 10° NNW
H-2A ROCKET BODY 4.0 00:35:54 10° W 01:20:50 54° SSW 01:23:23 46° SSE
In-Cosmos 22 Rocket 4.4 01:28:10 59° W 01:28:21 59° W 01:34:02 10° N
Cosmos 1340 Rocket 4.3 01:32:25 34° NNE 01:32:25 34° NNE 01:34:45 10° N
SeaSat 1 4.3 01:38:15 20° W 01:38:15 20° W 01:40:44 10° NW
NOSS 2-3 (C) 4.3 01:37:41 58° WNW 01:37:48 58° NW 01:43:21 10° NNE
Cosmos 44 Rocket 3.6 01:39:15 68° NNW 01:39:15 68° NNW 01:44:11 10° NNE
ALOS 2 4.2 01:44:00 26° WNW 01:44:00 26° WNW 01:46:36 10° NNW
Cosmos 1733 Rocket 3.9 01:46:04 50° NNW 01:46:04 50° NNW 01:49:29 10° N
Cosmos 2333 Rocket 4.4 01:47:05 10° WNW 01:49:11 13° W 01:49:11 13° W
Cosmos 2263 Rocket 3.5 01:51:58 27° E 01:51:58 27° E 01:56:23 10° NE
Lacrosse 4 Rocket 3.2 01:48:42 10° NW 01:50:55 26° WNW 01:50:55 26° WNW
Cosmos 2227 4.2 01:55:02 68° WNW 01:55:11 68° WNW 02:00:51 10° NNE
SL-16 R/B 3.3 01:51:22 10° NW 01:55:32 32° W 01:55:32 32° W
Meteor 1-27 Rocket 4.0 01:51:03 10° N 01:56:52 60° ENE 01:57:22 58° ESE
NOSS 3-4 (A) 4.1 01:57:31 41° ESE 01:57:31 41° ESE 02:03:27 10° NE
NOSS 3-4 (C) 4.1 01:57:37 41° ESE 01:57:37 41° ESE 02:03:32 10° NE
BREEZE-M DEB (TANK) 3.6 01:52:50 10° NW 01:57:18 39° NNW 01:57:18 39° NNW
Cosmos 1378 Rocket 4.5 01:56:32 10° N 02:00:01 45° NE 02:00:01 45° NE
Nadezhda 3 Rocket 3.9 02:02:40 10° NNW 02:08:51 72° W 02:09:17 69° SW
Okean 2 Rocket 4.1 02:10:09 41° ENE 02:10:09 41° ENE 02:13:48 10° NNE
CZ-3 Stage 3 4.1 01:50:06 10° W 02:09:53 46° SW 02:09:53 46° SW
CZ-2C R/B 3.1 02:11:35 82° S 02:11:51 88° WSW 02:17:36 10° NNW
Cosmos 1238 Rocket 4.1 02:10:07 10° N 02:12:49 37° N 02:12:49 37° N
Cosmos 1782 Rocket 4.2 02:19:57 53° NE 02:19:57 53° NE 02:23:28 10° NNE
Meteor 2-6 Rocket 4.4 02:14:51 10° NNW 02:20:34 60° W 02:20:38 60° W
CZ-4C R/B 3.2 02:13:55 10° NNW 02:21:00 62° NE 02:26:09 23° SE
Cosmos 1943 3.5 02:16:48 10° NNW 02:22:26 60° ENE 02:23:36 49° ESE
CZ-2C R/B 3.3 02:18:32 10° N 02:23:26 42° WNW 02:23:38 42° WNW
COSMOS 2455 4.5 02:22:08 10° WNW 02:25:14 20° W 02:25:14 20° W
Cosmos 2251 Rocket 4.4 02:22:18 10° NW 02:26:18 36° WNW 02:26:18 36° WNW
Cosmos 1606 4.2 02:25:50 10° NNW 02:28:05 32° NNW 02:28:05 32° NNW
Cosmos 1603 4.2 02:24:33 10° NW 02:29:23 46° W 02:29:23 46° W
PSLV R/B 3.9 02:36:57 10° NNE 02:40:32 58° NE 02:40:32 58° NE
Cosmos 1975 Rocket 3.4 02:39:34 10° N 02:43:12 59° NNW 02:43:12 59° NNW
Cosmos 1242 Rocket 4.2 02:44:24 10° NNE 02:47:00 29° ENE 02:47:00 29° ENE
Cosmos 1607 3.8 02:42:00 10° NW 02:48:05 66° WSW 02:48:31 64° SW
ATLAS 3B R/B 4.3 02:46:23 10° WNW 02:49:26 17° W 02:49:26 17° W
Cosmos 1624 Rocket 4.2 02:52:41 53° SE 02:53:08 55° ESE 02:58:15 10° NNE
USA 238 DEB 4.1 02:47:00 10° NW 02:53:34 43° WSW 02:53:37 43° WSW
USA 238 4.1 02:47:06 10° NW 02:53:40 44° WSW 02:53:45 44° WSW
Cosmos 44 4.5 02:53:21 34° W 02:54:31 38° NW 02:59:36 10° NNE
Cosmos 1536 Rocket 4.4 02:51:37 10° N 02:55:47 42° E 02:56:22 39° E
NPP 3.8 03:00:24 10° NNE 03:05:45 62° ESE 03:06:51 51° SSE
Cosmos 2151 Rocket 3.5 03:07:47 85° E 03:07:47 85° E 03:12:15 10° N
BREEZE-M TANK 3.5 03:06:15 10° WNW 03:09:36 33° N 03:11:56 10° E
Iridium 4 Rocket 3.2 03:07:15 10° N 03:11:54 83° E 03:12:32 67° SSE
Cosmos 1184 Rocket 4.2 03:13:16 34° NNW 03:13:16 34° NNW 03:15:28 10° N
USA 234 3.1 03:06:02 10° SE 03:12:35 88° SW 03:19:09 10° NW
Cosmos 1812 4.1 03:10:15 10° NNE 03:13:49 33° ENE 03:14:39 30° ESE
Abrixas rocket 3.7 03:15:16 36° ENE 03:15:16 36° ENE 03:17:24 10° ENE
RESURS DK-1 2.4 03:14:33 78° NNW 03:14:33 78° NNW 03:18:32 10° NNE
ARIANE 5 R/B 4.2 03:12:02 10° NE 03:16:03 24° E 03:18:18 18° SE
Cosmos 1825 4.3 03:17:09 18° WNW 03:17:09 18° WNW 03:19:07 10° NNW
ERS-2 2.4 03:16:01 10° NNE 03:19:28 62° ENE 03:19:28 62° ENE
CBERS-1 4.0 03:18:57 10° NNE 03:24:06 77° ESE 03:25:21 52° S
Okean 1 Rocket 4.0 03:23:13 36° SE 03:24:18 43° E 03:28:30 10° NNE
NOSS 3-2 (C) 3.9 03:20:02 10° NW 03:27:37 76° WSW 03:34:29 15° SSE
CENTAUR R/B 4.4 03:22:13 10° NNW 03:29:28 40° NE 03:37:07 10° ESE
CZ-2D R/B 3.8 03:26:24 10° NE 03:30:55 26° E 03:34:28 14° SE
Cosmos 1844 Rocket 3.5 03:31:31 29° SSE 03:33:45 43° ESE 03:39:05 10° NE
Cosmos 2263 Rocket 3.0 03:33:39 32° W 03:35:22 39° WNW 03:40:41 10° N
GP-B 3.2 03:31:36 10° N 03:36:03 74° E 03:37:06 50° SSE
Cosmos 1339 Rocket 4.5 03:30:10 10° NNW 03:36:08 60° W 03:37:57 42° SSW
Meteor 1-25 Rocket 4.2 03:35:22 46° SSW 03:37:10 82° W 03:42:59 10° N
SL-24 DEB 4.1 03:32:52 10° N 03:37:31 81° W 03:38:27 56° SSW
COSMOS 2406 3.5 03:35:49 10° NNW 03:41:36 67° ENE 03:47:18 10° SSE
SL-08 R/B 3.4 03:41:41 49° SSW 03:42:49 65° WSW 03:47:43 10° NNW
Cosmos 1190 Rocket 3.9 03:39:37 10° NNW 03:44:52 86° WSW 03:47:22 32° SSE
Cosmos 2278 Rocket 3.7 03:46:40 15° SSE 03:50:15 28° ESE 03:55:00 10° NE
Cosmos 2056 Rocket 4.0 03:48:43 37° WSW 03:50:16 48° WNW 03:55:22 10° N
IRS-1C 4.1 03:46:03 10° N 03:51:24 74° WNW 03:53:23 39° SSW
NOSS 3-2 (A) 4.3 03:45:15 10° NW 03:52:25 45° WSW 03:56:22 27° SSW
Cosmos 1602 4.4 03:55:28 31° SSE 03:56:54 48° E 04:00:37 10° NNE
Spot 4 Rocket 4.0 03:51:50 10° NNE 03:57:01 90° NW 03:59:15 35° SSW
Tiangong 1 1.0 03:59:17 79° NE 03:59:17 79° NE 04:02:15 10° ESE
Cosmos 1535 Rocket 4.4 03:56:38 32° SSW 03:59:40 78° W 04:05:57 10° N
Cosmos 1025 Rocket 4.2 03:57:50 10° N 04:01:54 40° E 04:05:56 10° SSE
Cosmos 407 Rocket 3.4 03:57:29 10° NNW 04:02:38 75° WSW 04:05:49 24° S
Cosmos 1809 Rocket 4.4 04:00:04 30° SSW 04:03:15 81° W 04:09:25 10° N
AQUA 4.5 04:00:11 10° N 04:04:37 40° WNW 04:06:04 32° WSW
Cosmos 1536 3.7 04:04:06 22° SSE 04:06:22 45° E 04:10:16 10° NNE
Cosmos 676 Rocket 3.9 04:02:52 10° NNW 04:08:05 90° WSW 04:12:41 13° SSE
CZ-4C R/B 3.7 04:03:11 10° NW 04:09:19 29° WSW 04:11:12 26° SW
NOSS 2-2 (C) 4.1 04:09:51 30° S 04:11:30 49° ESE 04:15:53 10° NE
SL-27 R/B 2.4 04:08:58 10° NNW 04:12:37 70° WSW 04:13:49 39° S
USA 161 1.8 04:16:07 46° WNW 04:16:07 46° WNW 04:18:36 10° NNW
Meteor 2-21 4.5 04:13:34 28° SSW 04:16:49 63° W 04:22:52 10° N
IRS-1D 3.4 04:12:52 10° NNE 04:17:59 89° ESE 04:20:59 25° SSW
Gbstr 26 Del rocket 2.6 04:16:43 40° SW 04:18:03 78° SE 04:21:47 10° NE
Cosmos 724 4.3 04:12:50 10° NNW 04:19:00 86° WSW 04:25:12 10° SSE
Meteor 2-16 Rocket 4.4 04:15:38 21° S 04:19:55 89° W 04:26:06 10° N
UNKNOWN OBJECT B 3.7 04:16:15 10° NNE 04:20:14 48° E 04:23:04 18° S
OTV 4 1.1 04:22:22 37° SSE 04:22:22 37° SSE 04:24:34 10° ESE
Resurs 1-4 Rocket 2.2 04:17:16 10° NNE 04:22:37 80° ESE 04:26:23 20° S
H-2A R/B 4.2 04:18:33 23° SW 04:22:38 31° S 04:52:04 10° SE
Cosmos 1867 4.5 04:18:26 10° NW 04:22:59 27° WSW 04:23:54 26° SW
Meteor 1-19 Rocket 4.3 04:24:20 10° N 04:30:10 89° E 04:36:02 10° S
MOS 1-B 4.4 04:29:28 10° NNE 04:35:19 88° ESE 04:40:08 16° SSW
Cosmos 1954 Rocket 3.9 04:31:39 10° NNW 04:36:46 63° WSW 04:41:51 10° S
NOSS 2-2 (E) 3.5 04:35:27 26° SW 04:37:47 80° WNW 04:42:36 10° NNE
Meteor 1-11 Rocket 4.0 04:35:08 20° SSW 04:39:11 60° WNW 04:45:06 10° N
EO 1 Del DPAF 3.3 04:36:39 19° S 04:39:15 57° W 04:43:06 10° NNW
Cosmos 1633 2.4 04:37:17 24° SSW 04:39:20 79° W 04:42:58 10° N
Cosmos 1892 Rocket 3.7 04:35:10 10° N 04:39:32 73° E 04:43:50 10° SSE
Cosmos 1934 Rocket 4.4 04:39:43 20° SW 04:43:48 45° WNW 04:49:43 10° N
SME Rocket 2.7 04:40:11 10° S 04:43:55 68° WSW 04:47:49 10° NNW
USA 129 2.5 04:48:31 11° SSE 04:50:26 51° ENE 04:52:31 10° N
SL-16 R/B 2.7 04:44:48 10° S 04:50:53 54° W 04:56:59 10° NNW
Cosmos 1356 3.4 04:48:44 19° SSW 04:51:12 75° W 04:54:46 10° N
Abrixas rocket 4.4 04:48:47 10° WNW 04:51:27 21° NNW 04:54:06 10° NE
Cosmos 1400 Rocket 2.7 04:49:37 17° SSW 04:52:30 72° W 04:56:25 10° N
CZ-2C R/B 4.1 04:49:50 10° SSE 04:54:31 69° ENE 04:59:17 10° N
ARIANE 5 R/B 3.3 04:50:43 10° N 04:55:13 35° WNW 04:58:38 16° SW
USA 234 4.3 04:51:27 10° SSW 04:56:04 20° WSW 05:00:44 10° WNW
Cosmos 614 Rocket 4.0 04:54:26 10° NNW 04:59:38 85° ENE 05:04:45 10° SSE
Yuri Rocket 4.4 04:56:53 16° SW 04:59:46 25° S 05:03:31 10° SE
COSMOS 2487 2.4 04:56:55 10° NNW 05:00:32 67° WSW 05:04:06 10° S
MTI 4.2 04:58:10 13° S 05:00:57 45° W 05:04:08 10° NNW
Thor Agena Rocket 4.2 04:55:55 10° SSE 05:01:01 60° ENE 05:06:05 10° N
CZ-4B R/B 3.9 04:58:20 10° NNE 05:02:47 52° E 05:07:09 10° S
Okean O Rocket 1.6 04:59:04 10° NNE 05:03:25 86° E 05:07:46 10° SSW
PAYLOAD B 4.4 05:02:07 10° NNE 05:07:44 76° ESE 05:13:18 10° S
CZ-2D R/B 2.9 05:06:03 10° N 05:11:02 38° WNW 05:15:48 11° SW
Meteor 1-23 Rocket 4.4 05:05:28 10° NNW 05:11:04 57° W 05:16:34 10° S
Cosmos 1602 Rocket 4.3 05:07:04 10° N 05:11:20 56° E 05:15:36 10° SSE
Cosmos 1315 Rocket 2.9 05:12:40 10° SSW 05:16:45 64° W 05:20:48 10° N
Cosmos 1844 Rocket 4.0 05:13:11 10° WSW 05:17:47 26° WNW 05:22:31 10° N
Okean 2 3.6 05:13:58 10° NNW 05:17:56 50° W 05:21:54 10° SSW
CENTAUR R/B 3.3 05:12:48 10° NW 05:20:28 53° WSW 05:28:26 10° S
CZ-2D R/B 4.0 05:16:46 10° N 05:20:31 41° WNW 05:24:18 10° SW
Cosmos 2016 Rocket 4.2 05:20:22 10° S 05:26:41 78° E 05:32:58 10° N
Cosmos 1331 Rocket 4.2 05:22:27 10° S 05:27:41 74° ESE 05:32:53 10° NNE
CZ-4B DEB 4.3 05:22:27 10° NNE 05:28:02 83° WNW 05:33:36 10° SSW
Cosmos 1455 Rocket 3.7 05:25:00 10° SSW 05:29:09 39° WNW 05:33:21 10° N
Cosmos 1975 2.9 05:25:38 10° S 05:29:38 84° E 05:33:39 10° N
Cosmos 2297 3.7 05:24:47 10° SSW 05:30:25 80° WNW 05:36:09 10° NNE
Cosmos 1626 Rocket 3.6 05:26:12 10° N 05:30:34 86° W 05:34:58 10° S
Cosmos 1461 3.8 05:26:13 10° SW 05:30:43 43° NW 05:35:09 10° NNE
Cosmos 2278 Rocket 3.0 05:28:53 10° SW 05:34:07 38° WNW 05:39:24 10° N
Tiangong 1 2.6 05:33:21 10° W 05:35:29 17° SW 05:37:38 10° S
Cosmos 1346 Rocket 3.7 05:32:23 10° N 05:36:24 55° E 05:40:21 10° SSE
Cosmos 1140 Rocket 4.5 05:33:29 10° NW 05:37:38 25° W 05:41:46 10° SSW
ADEOS Rocket 4.3 05:33:37 10° NNE 05:38:41 37° E 05:43:58 10° SSE
MOZ.5/SAFIR/RUBIN 5/SL-8 4.0 05:34:34 10° S 05:39:15 56° W 05:43:57 10° NNW
UNK 3.9 05:34:32 10° WSW 05:40:24 36° NW 05:42:52 10° NE
